Location: Camp Crooked Creek
(37.9149°N, 85.6607°W)
Time: 15:36:53
(UTC-04:00)

Daily predictions for brighter satellites

Satellite Brightness Start Highest point End
(mag) Time Altitude Azimuth Time Altitude Azimuth Time Altitude Azimuth
Cosmos 1378 Rocket 3.5 21:19:58 10° S 21:24:16 90° SSE 21:28:35 10° N
GPS 2-05 Rocket1 4.0 21:23:49 10° SSW 21:26:29 23° SSE 21:29:12 10° ESE
Cosmos 1975 Rocket 3.3 21:26:41 10° SSE 21:30:49 46° E 21:34:58 10° NNE
Cosmos 2084 3.7 21:26:41 10° SW 21:31:02 73° NW 21:35:10 10° NNE
Cosmos 1725 Rocket 4.2 21:25:17 10° S 21:31:28 78° W 21:37:42 10° N
Okean 1 Rocket 3.2 21:31:01 10° N 21:35:22 80° W 21:39:42 10° S
Tsikada Rocket 4.2 21:32:38 10° N 21:39:06 88° W 21:45:31 10° S
ATLAS CENTAUR R/B 3.8 21:36:39 10° WNW 21:40:16 22° WSW 21:43:58 10° SSW
Meteor 2-4 Rocket 4.1 21:37:02 10° SSE 21:42:05 41° E 21:47:17 10° NNE
ARGOS 4.2 21:37:42 10° SE 21:42:17 29° ENE 21:46:53 10° N
Meteor 1-12 Rocket 4.4 21:36:50 10° N 21:42:48 71° E 21:48:47 10° SSE
Cosmos 1242 Rocket 2.6 21:39:27 10° N 21:43:03 59° E 21:46:34 10° SSE
Cosmos 540 Rocket 4.4 21:40:12 10° SSE 21:44:28 27° E 21:48:45 10° NE
Okean 1 4.3 21:40:41 10° SSW 21:44:37 50° W 21:48:35 10° N
YAOGAN 6 3.6 21:43:12 10° S 21:46:47 48° W 21:50:21 10° NNW
USA 186 3.1 21:44:28 10° S 21:47:33 41° W 21:50:48 10° NNW
Thor Agena Rocket 4.1 21:43:30 10° N 21:48:43 65° WNW 21:53:50 10° SSW
NOAA 11 4.2 21:44:41 10° SSE 21:50:08 74° ENE 21:55:35 10° N
Shenzhou-11 Module 2.5 21:49:08 10° WNW 21:52:03 52° NNE 21:54:34 13° E
Cosmos 2322 Rocket 2.2 21:46:48 10° NNW 21:52:26 78° ENE 21:57:49 11° SSE
Spot 2 Rocket 3.5 21:48:35 10° SSE 21:53:36 79° ENE 21:58:39 10° N
Lacrosse 5 rocket 2.9 21:50:24 10° NNW 21:54:06 26° NE 21:57:27 11° E
SJ 16-02 3.1 21:53:00 10° NNE 21:56:07 18° ENE 21:58:37 12° E
Cosmos 1763 Rocket 3.6 21:52:48 10° SSW 21:58:06 84° WNW 22:03:25 10° NNE
Tiangong 2 2.8 21:56:19 10° WNW 21:59:12 32° N 22:02:05 10° ENE
Cosmos 1937 Rocket 3.4 21:54:31 10° NNW 21:59:41 78° ENE 22:04:20 13° SSE
Cosmos 1939 Rocket 4.2 21:57:49 10° SSW 22:01:41 39° W 22:05:36 10° NNW
SL-16 R/B 2.3 21:57:40 10° NNW 22:03:21 80° WSW 22:08:42 12° SSE
Cosmos 1536 Rocket 4.4 22:01:18 15° SSE 22:04:19 32° E 22:08:18 10° NNE
ISS -0.3 22:04:59 10° NNW 22:05:26 10° NNW 22:05:52 10° N
Cosmos 841 Rocket 3.4 22:00:21 10° SSW 22:05:34 78° ESE 22:10:51 10° NNE
Cosmos 292 Rocket 3.7 22:01:12 10° S 22:05:56 74° ESE 22:10:41 10° NNE
BREEZE M DEB (TANK) 3.6 21:55:17 10° NW 22:06:27 62° NNE 22:09:21 17° ESE
Cosmos 2233 Rocket 4.4 22:01:37 10° SSW 22:07:41 64° W 22:13:51 10° N
Cosmos 2298 Rocket 4.0 22:05:01 10° NNW 22:10:20 77° ENE 22:14:30 17° SSE
Resurs 01 Rocket 2.7 22:09:54 10° S 22:14:04 42° W 22:18:15 10° NNW
Cosmos 1340 Rocket 2.7 22:11:55 10° S 22:15:56 75° E 22:20:01 10° NNE
USA 234 3.2 22:09:54 10° NE 22:16:30 83° SE 22:23:04 10° SW
CZ-4C R/B 4.1 22:10:57 10° NNW 22:17:12 31° NE 22:23:08 13° E
DELTA 2 R/B (1) 4.1 22:16:23 10° SW 22:21:25 36° SSE 22:26:27 10° E
Cosmos 2219 4.4 22:20:18 21° ESE 22:21:50 23° E 22:26:12 10° NE
USA 32 4.0 22:17:52 10° N 22:23:07 75° E 22:27:06 17° S
SL-08 RB Rocket 3.9 22:24:27 24° SE 22:26:57 55° ENE 22:31:26 10° N
ERS-2 4.5 22:26:24 10° SW 22:29:13 20° W 22:32:01 10° NW
ERS-1 Rocket 3.3 22:27:39 25° SE 22:30:19 49° ENE 22:35:09 10° N
CENTAUR R/B 3.2 22:32:23 10° SW 22:38:11 56° NW 22:44:52 10° NNE
Cosmos 2360 Rocket 2.1 22:35:10 10° NNW 22:40:50 84° ENE 22:43:54 28° SSE
Cosmos 1025 Rocket 3.7 22:40:15 33° ESE 22:41:06 36° E 22:45:08 10° NNE
Cosmos 1356 4.1 22:40:32 15° SSW 22:43:17 53° W 22:46:42 10° N
Cosmos 2219 Rocket 3.5 22:38:45 10° N 22:43:21 25° ENE 22:45:43 19° E
Meteor 1-15 Rocket 4.2 22:39:18 10° N 22:44:59 68° E 22:47:47 30° SSE
MetOp-A 4.3 22:43:50 22° S 22:47:21 73° WSW 22:52:44 10° NNW
Aureole 2 Rocket 3.4 22:48:29 10° NW 22:50:59 29° WSW 22:51:29 27° SW
Okean 2 3.3 22:53:27 44° SSE 22:54:37 68° E 22:58:46 10° NNE
SPOT 1/Viking Rocket 3.8 22:55:11 36° SE 22:56:58 53° ENE 23:02:00 10° N
Cosmos 1455 Rocket 4.2 22:54:39 10° NNW 22:58:45 40° W 23:01:29 19° SSW
Cosmos 2034 Rocket 4.0 22:54:59 17° S 22:59:54 83° W 23:06:06 10° N
H-2A R/B 2.2 22:57:45 28° S 23:00:18 66° W 23:05:20 10° NNW
Cosmos 1125 Rocket 3.5 22:55:11 10° NNW 23:00:26 68° ENE 23:02:08 42° SE
USA 245 3.2 23:00:38 56° S 23:01:25 86° WSW 23:05:52 10° NNW
Helios 1A 3.0 23:00:58 51° SE 23:01:45 63° ENE 23:05:53 10° N
Landsat 7 4.2 23:02:11 40° ESE 23:03:16 47° ENE 23:07:50 10° N
GPS 2-05 Rocket1 3.9 23:00:10 10° WSW 23:02:11 32° SW 23:02:11 32° SW
Cosmos 1356 Rocket 3.3 23:07:09 52° S 23:08:08 82° E 23:12:27 10° N
COSMOS 2455 3.9 23:14:03 27° E 23:14:03 27° E 23:18:13 10° NE
Cosmos 2333 Rocket 3.0 23:08:48 10° N 23:14:09 40° ENE 23:15:46 33° E
COSMOS 2428 2.7 23:11:28 10° NNW 23:17:08 68° ENE 23:18:42 47° SE
Spot 1 4.3 23:19:22 49° ENE 23:19:23 49° ENE 23:23:19 10° N
Terra 2.2 23:21:33 46° E 23:22:04 48° ENE 23:26:39 10° N
ARGOS 4.5 23:19:05 18° SSW 23:22:23 33° W 23:27:15 10° NNW
Helios 1B rocket 2.3 23:20:07 10° NNE 23:24:16 90° ESE 23:24:33 77° SSW
Cosmos 1634 Rocket 4.0 23:23:14 44° SSE 23:25:06 63° E 23:31:21 10° NNE
DMSP B5D2-2 4.5 23:21:29 10° N 23:26:42 61° WNW 23:29:45 25° SW
SPOT 5 2.7 23:26:23 58° SSW 23:27:05 71° WSW 23:31:41 10° NNW
Cosmos 2297 Rocket 3.3 23:29:00 28° E 23:29:00 28° E 23:32:55 10° NE
Cosmos 1892 Rocket 4.4 23:31:41 38° ENE 23:31:41 38° ENE 23:34:58 10° NNE
Nimbus 7 Rocket 4.4 23:25:54 10° NNE 23:31:44 58° ESE 23:32:44 51° SE
Cosmos 2227 Rocket 2.9 23:32:28 36° E 23:32:28 36° E 23:36:58 10° NE
Lacrosse 5 rocket 2.2 23:29:27 10° WNW 23:33:08 38° WSW 23:33:08 38° WSW
SJ 16-02 2.4 23:30:46 10° NW 23:34:50 36° W 23:35:37 33° SW
IGS 5A 3.4 23:35:34 77° NE 23:35:34 77° NE 23:39:34 10° N
Tiangong 2 2.8 23:33:13 10° WNW 23:35:15 33° NW 23:35:15 33° NW
Cosmos 2322 4.5 23:33:08 10° NW 23:38:31 43° WSW 23:40:14 34° SSW
Cosmos 2228 4.1 23:35:11 10° N 23:38:31 34° ENE 23:38:31 34° ENE
Cosmos 2237 Rocket 3.1 23:35:39 10° N 23:40:54 36° ENE 23:41:55 34° E
Okean 1-7 Rocket 3.7 23:48:21 66° WSW 23:48:36 68° W 23:53:09 10° N
Cosmos 1726 Rocket 3.8 23:46:34 10° N 23:50:28 61° NE 23:50:28 61° NE
Cosmos 1544 4.1 23:48:44 10° NNW 23:51:33 45° NW 23:51:33 45° NW
